SL-16 DEB, 39711

Orbit data source: Space-Track

SL-16 DEB, 39711 is space debris in LEO originally from a launch on Fri, 25 Dec 1992 UTC launched from the Tyuratam Missile And Space Complex (TTMTR). Debris objects in space refer to the collection of defunct objects orbiting the Earth. Examples of debris include non-operational satellites, rocket bodies, and fragments generated from explosions, collisions, or faulty payload assembly.

Loading next visibility...
Identifier
39711, 1992-093KB
Orbit
LEO
Country
Flag of CISCIS
Related business
Manufacturer
Unknown
Mission
Spacecraft
Bus & Motor
Unknown
Mass
Unknown
Launch date (UTC)
1992-12-25 (33 years ago)
Launch vehicle
Unknown
Launch site
Tyuratam Missile And Space Complex (TTMTR)
Object type
Payload
Rocket body
Debris
Shape & HBR
Unknown shape, 0.1 m
Radar Cross Section
Small (<0.1 m²)

Expand to show TLE details & history
Last TLE update: 2 days ago

TLE from 2 days ago
0 SL-16 DEB
1 39711U 92093KB  25301.50210317  .00000738  00000-0  48824-3 0  9991
2 39711  70.8376  23.5852 0095987 284.7178  74.3314 14.02741141589654
Epoch: 2025-10-28T12:03Z
TLE epoch observation values (Epoch: 2025-10-28T12:03:01.713Z)
Latitude
-0.00003°
Longitude
165.73938°
Altitude
868.488 km
Speed
7.428 km/s
True Right ascension
01h 34m 20s
True Declination
0° 00' 00"
Sunlit
Object was in full shadow at epoch
Visualization orbit readout
Latitude
Unknown
Longitude
Unknown
Altitude
Unknown
Speed
Unknown
Apparent Right ascension
Unknown
Apparent Declination
Unknown
Sunlit
N/A
Visualization observer readout
Local Sidereal Time
19:38:00
Azimuth
Unknown
Elevation
Unknown
Doppler factor
Unknown
Orbital elements
Apogee altitude
951.962 km
Perigee altitude
812.581 km
Semi-major axis
7,260.408 km
Eccentricity
0.0096
Inclination
70.8376°
RAAN
23.5852°
Arg. of periapsis
284.7178°
True anomaly
75.39384°
Mean anomaly
74.3314°
Eccentric anomaly
74.86228°
Mean motion
3.50834 °/min
Orbital period
102.61 mins
BSTAR
0.00048824
Loading maneuver chart data...
Computing Atmospheric mass density...
Loading historical data...
Loading historical data...
Loading historical data...
Loading historical data...
Loading historical data...
Loading historical data...
Loading historical data...

Documentation

Showing up to 5 results
|